{"data":{"norad_id":62127,"intl_designator":"2024-222P","name":"STARLINK-32557","alt_names":[],"object_type":"PAYLOAD","status":"ACTIVE","operator":null,"country":"US","launch_date":"2024-11-27","launch_site_code":"AFETR","launch_vehicle":null,"mission":null,"orbit_class":"UNKNOWN","rcs_meters":null,"size_class":null,"mass_kg":null,"dimensions":null,"purposes":["comms"],"wikipedia_slug":null,"has_3d_model":false,"image_url":null,"decayed_at":null,"tle_current":{"epoch":"2026-05-25T03:37:51.779136Z","epoch_age_seconds":56012,"freshness":"FRESH","line1":"1 62127U 24222P   26145.15129374  .00030632  00000+0  11173-2 0  9998","line2":"2 62127  43.0014  53.7632 0001752 267.0989  92.9662 15.27602945 84618","mean_motion":15.27602945,"eccentricity":0.0001752,"inclination_deg":43.0014,"raan_deg":53.7632,"arg_perigee_deg":267.0989,"mean_anomaly_deg":92.9662,"bstar":0.0011173,"rev_number":8461,"period_min":94.26533280217,"perigee_km":481.77832354826,"apogee_km":484.18245908217,"semimajor_km":6861.1173913152,"source":"CELESTRAK","updated_at":"2026-05-25T13:38:19.565300Z"}}}